Weather History for Joplin, MO

Change the Weather History Date:

Friday, February 22, 2013

  Actual Average Record
Temperature  
Mean Temperature 27 °F 42 °F  
Max Temperature 33 °F 53 °F 87 °F (1996)
Min Temperature 20 °F 31 °F 7 °F (1963)
Degree Days  
Heating Degree Days 38 23  
Month to date heating degree days 576 573  
Since 1 July heating degree days 2929 3122  
Cooling Degree Days 0 0  
Month to date cooling degree days 0 0  
Year to date cooling degree days 1 0  
Moisture  
Dew Point 20 °F    
Average Humidity 84    
Maximum Humidity 92    
Minimum Humidity 75    
Precipitation  
Precipitation 0.00 in 0.09 in 4.69 in (1985)
Month to date precipitation 1.88 1.76  
Year to date precipitation 4.33 3.79  
Snow  
Snow 0.00 in - - ()
Month to date snowfall 1.8  
Snow Depth 0.00 in    
Sea Level Pressure  
Sea Level Pressure 30.05 in    
Wind  
Wind Speed 9 mph (West)    
Max Wind Speed 24 mph    
Max Gust Speed 31 mph    
Visibility 10 miles    
Events      
T = Trace of Precipitation, MM = Missing Value Source: NWS Daily Summary

Daily Weather History Graph

Daily Weather History Graph

Search for Another Location

Airport:

Trip Planner

Search our weather history database for the weather conditions in past years. The results will help you decide how hot, cold, wet, or windy it might be!

Date:

Astronomy

Feb. 22, 2013 Rise Set
Actual Time 6:57 AM CST 6:05 PM CST
Civil Twilight 6:31 AM CST 6:31 PM CST
Nautical Twilight 6:01 AM CST 7:02 PM CST
Astronomical Twilight 5:31 AM CST 7:32 PM CST
Moon 3:20 PM CST (2/22) 4:40 AM CST (2/22)
Length of Visible Light 12h 00m
Length of Day
11h 07m
Waxing Gibbous, 90% of the Moon is Illuminated
Feb 22
Waxing Gibbous
Feb 25
Full
Mar 4
Last Quarter
Mar 11
New
Mar 19
First Quarter

Hourly Weather History & Observations

Time (CST) Temp. Windchill Dew Point Humidity Pressure Visibility Wind Dir Wind Speed Gust Speed Precip Events Conditions
12:53 AM 28.9 °F 15.8 °F 25.0 °F 85% 29.90 in 10.0 mi WSW 20.7 mph 27.6 mph N/A   Overcast
1:53 AM 25.0 °F 13.1 °F 21.0 °F 85% 29.94 in 10.0 mi WSW 13.8 mph 24.2 mph N/A   Mostly Cloudy
2:08 AM 24.8 °F 11.5 °F 21.2 °F 86% 29.92 in 10.0 mi WSW 17.3 mph 24.2 mph N/A   Mostly Cloudy
2:27 AM 24.8 °F 13.4 °F 19.4 °F 80% 29.92 in 10.0 mi WSW 12.7 mph 25.3 mph N/A   Mostly Cloudy
2:53 AM 24.1 °F 12.5 °F 19.9 °F 84% 29.95 in 10.0 mi WSW 12.7 mph - N/A   Mostly Cloudy
3:10 AM 24.8 °F 10.7 °F 19.4 °F 80% 29.92 in 10.0 mi West 19.6 mph 26.5 mph N/A   Overcast
3:53 AM 21.9 °F 10.4 °F 19.0 °F 89% 29.93 in 10.0 mi West 11.5 mph - N/A   Overcast
4:53 AM 21.9 °F 9.8 °F 18.0 °F 85% 29.95 in 10.0 mi West 12.7 mph - N/A   Overcast
5:53 AM 21.0 °F 9.3 °F 17.1 °F 85% 29.99 in 10.0 mi West 11.5 mph 20.7 mph N/A   Overcast
6:23 AM 19.4 °F 7.9 °F 17.6 °F 93% 29.98 in 10.0 mi WSW 10.4 mph - N/A   Scattered Clouds
6:48 AM 19.4 °F 8.6 °F 17.6 °F 93% 29.99 in 10.0 mi WSW 9.2 mph - N/A   Mostly Cloudy
6:53 AM 19.9 °F 10.1 °F 17.1 °F 89% 30.03 in 10.0 mi SW 8.1 mph - N/A   Mostly Cloudy
7:53 AM 19.9 °F 10.1 °F 17.1 °F 89% 30.07 in 10.0 mi SW 8.1 mph - N/A   Mostly Cloudy
8:53 AM 21.0 °F 10.6 °F 17.1 °F 85% 30.07 in 10.0 mi West 9.2 mph - N/A   Mostly Cloudy
9:02 AM 21.2 °F 8.9 °F 17.6 °F 86% 30.05 in 10.0 mi West 12.7 mph - N/A   Scattered Clouds
9:53 AM 23.0 °F 12.4 °F 19.0 °F 85% 30.10 in 10.0 mi West 10.4 mph - N/A   Scattered Clouds
10:53 AM 25.0 °F 14.2 °F 19.0 °F 78% 30.13 in 10.0 mi West 11.5 mph - N/A   Scattered Clouds
11:19 AM 24.8 °F 14.0 °F 19.4 °F 80% 30.10 in 10.0 mi West 11.5 mph - N/A   Mostly Cloudy
11:53 AM 27.0 °F 16.7 °F 21.0 °F 78% 30.13 in 10.0 mi West 11.5 mph - N/A   Mostly Cloudy
12:53 PM 28.0 °F 19.3 °F 21.0 °F 75% 30.11 in 10.0 mi West 9.2 mph - N/A   Mostly Cloudy
1:53 PM 28.0 °F 18.6 °F 21.9 °F 78% 30.11 in 10.0 mi West 10.4 mph - N/A   Mostly Cloudy
2:53 PM 28.9 °F 20.4 °F 21.0 °F 72% 30.11 in 10.0 mi West 9.2 mph - N/A   Mostly Cloudy
3:53 PM 28.9 °F 20.4 °F 21.0 °F 72% 30.11 in 10.0 mi WNW 9.2 mph - N/A   Scattered Clouds
4:01 PM 28.4 °F 22.2 °F 21.2 °F 74% 30.07 in 10.0 mi NW 5.8 mph - N/A   Mostly Cloudy
4:23 PM 28.4 °F 20.4 °F 21.2 °F 74% 30.07 in 10.0 mi WNW 8.1 mph - N/A   Scattered Clouds
4:53 PM 28.9 °F 21.1 °F 21.0 °F 72% 30.10 in 10.0 mi West 8.1 mph - N/A   Partly Cloudy
5:53 PM 27.0 °F 18.7 °F 19.9 °F 75% 30.11 in 10.0 mi West 8.1 mph - N/A   Clear
6:53 PM 26.1 °F 18.4 °F 21.0 °F 81% 30.12 in 10.0 mi West 6.9 mph - N/A   Clear
7:53 PM 24.1 °F 17.0 °F 19.9 °F 84% 30.12 in 10.0 mi Variable 5.8 mph - N/A   Clear
8:53 PM 24.1 °F - 19.0 °F 81% 30.13 in 10.0 mi Calm Calm - N/A   Clear
9:53 PM 23.0 °F - 19.0 °F 85% 30.14 in 9.0 mi Calm Calm - N/A   Clear
10:53 PM 21.9 °F 17.2 °F 19.0 °F 89% 30.15 in 7.0 mi WSW 3.5 mph - N/A   Clear
11:53 PM 21.9 °F 14.5 °F 19.0 °F 89% 30.15 in 8.0 mi West 5.8 mph - N/A   Clear